{"data":{"norad_id":65417,"epoch":"2026-05-24T23:48:35.318016Z","epoch_age_seconds":69553,"freshness":"FRESH","line1":"1 65417U 25192P   26144.99207544  .00025325  00000+0  86415-3 0  9992","line2":"2 65417  53.1577 238.1258 0001391  84.2674 275.8486 15.30204180 41062","mean_motion":15.3020418,"eccentricity":0.0001391,"inclination_deg":53.1577,"raan_deg":238.1258,"arg_perigee_deg":84.2674,"mean_anomaly_deg":275.8486,"bstar":0.00086415,"rev_number":4106,"period_min":94.105088642484,"perigee_km":474.24928918439,"apogee_km":476.15588825798,"semimajor_km":6853.3395887212,"source":"CELESTRAK","updated_at":"2026-05-25T13:38:20.801995Z"}}